Location: The C. Gantt Observatory
(33.6981°N, 81.6836°W)
Time: 07:27:58
(UTC-04:00)

Daily predictions for brighter satellites

Satellite Brightness Start Highest point End
(mag) Time Altitude Azimuth Time Altitude Azimuth Time Altitude Azimuth
Cosmos 2278 Rocket 4.2 20:22:07 10° NE 20:23:53 11° NE 20:25:40 10° ENE
Cosmos 1633 Rocket 4.4 20:25:05 10° NNE 20:28:21 21° ENE 20:31:38 10° SE
Sakura Rocket 3.9 20:24:38 10° WSW 20:29:34 37° S 20:33:26 10° ESE
Cosmos 2221 3.3 20:27:29 10° SSW 20:31:41 58° W 20:35:53 10° N
NOSS 2-1 (C) 4.0 20:31:08 10° SW 20:34:40 53° WNW 20:38:22 10° NNE
NOSS 2-1 (D) 4.2 20:32:08 10° SW 20:35:39 50° WNW 20:39:20 10° NNE
Cosmos 1340 2.6 20:33:11 10° S 20:36:56 64° E 20:40:41 10° NNE
Cosmos 2228 Rocket 4.5 20:37:28 10° SE 20:40:31 19° E 20:43:34 10° NE
H-2A R/B 4.4 20:37:35 10° SSW 20:41:00 35° W 20:44:29 10° NNW
SPOT 3 Rocket 4.4 20:36:27 10° S 20:41:30 54° W 20:46:33 10° NNW
HJ-1C 3.3 20:39:49 10° SSE 20:43:08 85° ENE 20:46:31 10° N
SL-24 R/B - RUBIN 2 4.0 20:39:58 10° NNW 20:44:07 43° ENE 20:48:00 12° SE
Thor Agena Rocket 3.7 20:39:05 10° NNE 20:44:16 57° ESE 20:49:27 10° S
In-Cosmos 22 Rocket 4.1 20:39:11 10° N 20:44:37 74° E 20:49:56 10° SSE
ATLAS 2AS CENTAUR R/B 3.8 20:39:30 10° NNW 20:46:30 34° NE 20:52:15 13° ESE
ASTRO E2 4.0 20:45:39 10° SSW 20:48:52 23° SSE 20:51:08 15° ESE
OAO 2 Rocket 3.4 20:45:04 10° W 20:50:20 89° NNE 20:54:42 14° E
Cosmos 1805 Rocket 3.5 20:49:08 10° N 20:53:30 89° WSW 20:57:48 10° S
Cosmos 1328 Rocket 4.0 20:50:18 10° SSE 20:54:26 41° E 20:58:36 10° NNE
Cosmos 1825 4.3 20:53:32 10° NE 20:54:42 11° ENE 20:54:53 11° ENE
Cosmos 2154 Rocket 4.0 20:49:32 10° S 20:55:48 80° E 21:02:03 10° N
ATLAS CENTAUR R/B 1.0 20:52:57 10° SSW 20:56:34 87° ESE 21:00:19 10° NNE
H-2A R/B 2.6 20:53:21 10° W 20:56:55 20° SW 20:58:36 11° SSE
SL-8 R/B 3.7 20:52:10 10° SW 20:56:57 85° NW 21:01:46 10° NE
SL-16 R/B 3.6 21:01:33 16° E 21:01:35 16° E 21:04:52 10° ENE
Meteor 2-15 4.4 20:57:22 10° N 21:03:32 83° E 21:09:37 10° S
Resurs 01 Rocket 2.0 21:02:01 15° SE 21:05:28 44° ENE 21:09:41 10° N
Timation 1 Rocket 4.4 20:59:37 10° NNW 21:05:34 67° ENE 21:10:41 14° SSE
SJ-6B 3.5 21:05:17 10° S 21:09:16 57° W 21:13:12 10° NNW
Cosmos 1470 Rocket 4.3 21:07:37 10° NNE 21:11:36 32° E 21:13:18 24° ESE
Haruka 3.8 21:05:05 10° W 21:13:36 45° SSW 21:15:52 22° SE
deb Centaur AC-2 4.4 21:11:11 10° W 21:15:24 51° S 21:17:41 26° ESE
Meteor 2-3 Rocket 3.8 21:10:03 10° N 21:15:36 59° E 21:20:11 15° SSE
Cosmos 1939 Rocket 2.7 21:13:06 17° SSE 21:15:59 71° ENE 21:19:52 10° N
Cosmos 2341 Rocket 4.0 21:12:46 10° S 21:19:09 82° E 21:25:29 10° N
Cosmos 1869 4.2 21:19:48 28° E 21:19:54 28° E 21:23:22 10° NNE
NOSS 0 Rocket 3.9 21:14:37 10° SSW 21:20:47 87° ESE 21:27:00 10° NNE
Cosmos 962 Rocket 4.4 21:14:52 10° S 21:20:59 89° E 21:27:10 10° N
Cosmos 2218 Rocket 4.3 21:18:00 10° SSE 21:23:59 46° E 21:30:02 10° NNE
Cosmos 1980 3.6 21:21:50 10° SSW 21:27:31 87° ESE 21:33:14 10° NNE
USA 267 3.9 21:26:07 10° ENE 21:31:45 31° SE 21:37:21 10° S
Cosmos 1666 Rocket 4.5 21:29:50 10° NNW 21:34:09 49° W 21:38:24 10° SSW
Cosmos 2366 rocket 4.1 21:31:03 18° SSE 21:35:28 51° E 21:41:31 10° NNE
H-2A R/B 3.4 21:36:33 21° ENE 21:36:37 21° ENE 21:40:20 10° NNE
ERS-2 3.8 21:34:52 10° SSW 21:38:09 32° W 21:41:29 10° NW
Cosmos 1408 2.9 21:34:49 10° N 21:38:11 46° ENE 21:38:11 46° ENE
Cosmos 2333 Rocket 3.4 21:33:04 10° SW 21:38:27 45° WNW 21:43:51 10° N
Resurs 1-3 3.8 21:35:47 20° S 21:38:47 69° WSW 21:43:10 10° NNW
Cosmos 220 Rocket 3.8 21:35:04 10° NNW 21:39:23 83° ENE 21:40:43 43° SSE
Cosmos 1371 Rocket 3.9 21:34:23 10° S 21:39:35 64° ESE 21:44:53 10° NNE
Cosmos 1151 Rocket 2.9 21:35:40 12° S 21:39:36 86° W 21:43:54 10° N
Cosmos 1455 3.6 21:36:31 10° SSW 21:40:06 39° W 21:43:44 10° N
Cosmos 1933 Rocket 3.5 21:35:55 10° N 21:40:15 58° E 21:41:04 48° SE
USA 186 3.3 21:40:40 20° WSW 21:40:59 20° W 21:42:45 10° NW
SL-8 Rocket 3.9 21:38:13 10° S 21:44:32 85° E 21:50:50 10° N
Cosmos 1844 Rocket 3.8 21:40:38 10° NW 21:45:56 42° WSW 21:50:46 12° S
YAOGAN 6 4.3 21:48:33 15° SSW 21:50:56 30° W 21:54:10 10° NNW
Cosmos 1844 4.5 21:47:22 10° NNW 21:52:50 49° WSW 21:56:42 19° S
Cosmos 2219 Rocket 4.2 21:48:18 10° WSW 21:53:07 28° WNW 21:57:58 10° N
Cosmos 2237 Rocket 2.8 21:49:25 10° SW 21:54:55 58° WNW 22:00:29 10° NNE
Cosmos 2056 Rocket 3.4 21:57:10 20° S 22:01:03 81° ESE 22:06:29 10° NNE
Genesis I 3.4 22:01:09 10° NNW 22:05:02 71° W 22:05:02 71° W
Cosmos 2098 Rocket 3.1 22:07:13 55° SSW 22:08:14 81° W 22:12:19 10° N
NOAA 11 4.5 22:05:46 32° S 22:08:15 64° WSW 22:13:43 10° NNW
Cosmos 2278 Rocket 2.1 22:03:00 10° NNW 22:08:43 89° WSW 22:09:51 59° SSE
Cosmos 1624 Rocket 4.3 22:13:55 16° SSW 22:18:06 65° WNW 22:23:16 10° N
Cosmos 1190 Rocket 4.4 22:20:30 10° N 22:24:56 53° NNE 22:24:56 53° NNE
ATLAS 2A CENTAUR R/B 3.8 22:08:08 10° WSW 22:25:57 51° S 22:27:46 47° SSE
SPOT 5 4.5 22:28:34 23° NNE 22:28:34 23° NNE 22:30:36 10° N
Cosmos 1825 3.9 22:26:56 10° NNW 22:29:46 31° WNW 22:29:46 31° WNW
ATLAS 2AS CENTAUR R/B 3.5 22:30:22 10° NW 22:37:41 49° WSW 22:39:44 39° SSW
Resurs 01 Rocket 4.4 22:40:03 10° WSW 22:42:06 13° W 22:44:09 10° WNW
GEOS 3 Rocket 3.9 22:37:51 10° NNE 22:43:09 66° NW 22:43:44 61° W
SL-16 R/B 2.7 22:43:11 37° WSW 22:45:07 56° WNW 22:50:41 10° NNE
ARGOS 3.6 22:48:16 55° W 22:48:16 55° W 22:53:16 10° NNW
Cosmos 2344 3.4 22:41:22 10° SSW 22:49:06 89° ESE 22:57:07 10° NNE
Cosmos 1821 Rocket 4.4 22:57:37 57° NNE 22:57:37 57° NNE 23:02:33 10° N
Cosmos 1727 Rocket 4.5 22:51:50 10° NNW 22:57:47 52° W 22:58:14 51° WSW
NOSS 3-4 (A) 3.8 23:01:07 10° NNW 23:07:53 80° N 23:07:53 80° N
NOSS 3-4 (C) 3.8 23:01:13 10° NNW 23:07:59 79° N 23:07:59 79° N
ERS-1 Rocket 4.3 23:10:08 36° NW 23:10:08 36° NW 23:13:27 10° NNW
USA 267 3.6 23:08:28 10° NE 23:14:54 61° NW 23:21:18 10° WSW
H-2A R/B 3.6 23:17:11 30° WNW 23:17:11 30° WNW 23:20:23 10° NNW
Cosmos 2369 Rocket 4.2 23:23:00 10° N 23:25:18 21° NNE 23:25:18 21° NNE
CZ-4C R/B 4.2 23:44:42 21° N 23:44:42 21° N 23:46:44 10° NNE
Terra 4.4 23:48:17 18° NNW 23:48:17 18° NNW 23:49:28 10° NNW
